Regional Weather Roundup
Issued by NWS

Home | Current Version | Previous Version | Text Only | Print | Product List | Glossary Off
Versions: 1 2 3 4 5 6 7 8 9 10 11 12 13 14 15 16 17 18 19 20 21 22 23 24 25 26 27 28 29 30 31 32 33 34 35 36 37 38 39 40 41 42 43 44 45 46 47 48 49 50

000
ASUS43 KDTX 141310
RWRMI
MICHIGAN HOURLY REGIONAL WEATHER ROUNDUP
NATIONAL WEATHER SERVICE DETROIT/PONTIAC MI
800 AM EST SUN FEB 14 2016

NOTE: "FAIR" INDICATES FEW OR NO CLOUDS BELOW 12,000 FEET WITH NO
SIGNIFICANT WEATHER AND/OR OBSTRUCTION TO VISIBILITY.

MIZ047>049-052>055-059>063-066>070-074>076-081>083-141400-
SOUTHEAST LOWER MICHIGAN

CITY           SKY/WX    TMP DP  RH WIND       PRES   REMARKS
ADRIAN         CLOUDY    -2  -5  87 NE3       30.44S
ALMA           CLEAR      3   0  88 MISG      30.44S
ANN ARBOR      CLOUDY    -7 -11  83 CALM      30.44S
BAD AXE        CLOUDY    -8 -13  80 CALM      30.44S
CARO           CLOUDY   -15 -18  84 CALM      30.45R
DETROIT CITY   CLEAR      3  -2  79 CALM      30.47S
DETROIT        CLOUDY     3  -1  83 CALM      30.47S
FLINT          CLOUDY    -8 -14  74 S3        30.45R
GROSSE ILE     CLOUDY     3   0  85 CALM      30.46R
HILLSDALE      CLOUDY    -2  -6  81 CALM      30.39R
HOWELL         CLOUDY    -6 -10  83 CALM      30.42S

CITY           SKY/WX    TMP DP  RH WIND       PRES   REMARKS
JACKSON        CLOUDY    -3  -8  79 CALM      30.42R
LAMBERTVILLE   CLOUDY     0  -3  87 CALM      30.46R
LANSING        CLOUDY     0  -4  83 CALM      30.44R
LAPEER         FAIR     -11 -15  83 CALM      30.44S
MASON          CLOUDY    -7 -11  81 CALM      30.43R
MONROE         CLOUDY     1  -3  83 N3        30.46R
MT. CLEMENS    PTCLDY     0  -4  84 NW1       30.45S
PONTIAC        CLOUDY    -4  -9  79 CALM      30.42S
PORT HOPE        N/A      7  -1  70 W5        30.42S WCI  -2
PORT HURON     CLOUDY    -8 -11  84 CALM      30.47S
TRI CITIES     CLOUDY     6   1  80 CALM      30.45S
MIDLAND        CLOUDY     5   1  83 CALM      30.44S
TROY           CLOUDY     5   1  83 CALM      30.47S
SAGINAW HB     CLOUDY     0  -2  92 E3        30.46S
$$
MIZ043>046-050>051-056>058-064>065-071>073-077>080-141400-
SOUTHWEST LOWER MICHIGAN

CITY           SKY/WX    TMP DP  RH WIND       PRES   REMARKS
BATTLE CREEK   CLOUDY    -1  -7  75 CALM      30.41S
BENTON HARBOR  CLOUDY     7   3  84 SE6       30.41F WCI  -3
BIG RAPIDS     CLOUDY    -3  -6  87 CALM      30.39S
COLDWATER      CLOUDY    -2  -6  82 CALM      30.41S
FREMONT        CLOUDY     9  -2  60 SE5       30.41S WCI   1
HOLLAND        CLOUDY     5  -4  66 E7        30.42S WCI  -7
GRAND RAPIDS   CLOUDY     2  -3  80 CALM      30.43R
IONIA          FAIR       2  -2  84 CALM      30.42S
KALAMAZOO      CLOUDY     0  -6  76 CALM      30.41F
LUDINGTON      CLOUDY    12   3  66 SE8       30.40S WCI   0
MARSHALL       CLOUDY    -2  -6  83 CALM      30.41S
MOUNT PLEASANT MOCLDY    10   4  77 CALM      30.42S
MUSKEGON       CLOUDY    11   1  64 SE9       30.42S WCI  -2
SOUTH HAVEN    PTCLDY     6   1  78 SE5       30.41F WCI  -3
$$
MIZ016>042-141400-
NORTHERN LOWER MICHIGAN

CITY           SKY/WX    TMP DP  RH WIND       PRES   REMARKS
ALPENA         CLOUDY   -10 -15  78 CALM      30.43S
BEAVER ISLAND  LGT SNOW  12   9  88 E6        30.37F WCI   3
BELLAIRE       CLOUDY    11   5  75 S5        30.40S WCI   3
CADILLAC       CLOUDY     2  -3  80 CALM      30.34S
CHARLEVOIX     CLOUDY    10   7  86 SE6       30.40F WCI   1
FRANKFORT      CLOUDY    13   4  65 SE8       30.38S WCI   2
GAYLORD        CLOUDY     5   1  83 SE3       30.33F
GRAYLING       CLOUDY     4   0  83 CALM      30.36F
HARBOR SPRINGS CLOUDY     1  -3  83 E7        30.38F WCI -12
HOUGHTON LAKE  CLOUDY     3  -1  83 CALM      30.37F
MANISTEE       CLOUDY    12   1  62 SE7       30.38F WCI   2
OSCODA         CLOUDY   -11 -17  75 CALM      30.44F
PELLSTON       CLOUDY    -3  -8  79 CALM      30.40F
ROGERS CITY    CLOUDY    -2  -6  83 SW3       30.43S
TRAVERSE CITY  CLOUDY    12   3  67 SE5       30.38F WCI   4
$$
MIZ007>008-015-141400-
EASTERN UPPER MICHIGAN

CITY           SKY/WX    TMP DP  RH WIND       PRES   REMARKS
KINROSS        CLOUDY    -4  -8  84 E5        30.39F WCI -15
MACKINAC ISLAN CLOUDY     4   1  85 S8        30.39S WCI  -9
NEWBERRY       PTCLDY    -5  -8  89 SE6       30.35F WCI -18
S. S. MARIE    CLOUDY    -6 -15  65 E6        30.41S WCI -19
MUNISING         N/A    -10 -14  82 S7        30.34F WCI -25
$$
MIZ004>006-011>014-085-141400-
CENTRAL UPPER MICHIGAN

CITY           SKY/WX    TMP DP  RH WIND       PRES   REMARKS
MANISTIQUE     CLOUDY   -14 -19  79 CALM      30.36F
ESCANABA       CLOUDY   -17 N/A N/A CALM      30.36F
MENOMINEE      CLOUDY   -11 -15  84 CALM      30.35F
SAWYER-GWINN   CLEAR    -24 -29  76 CALM      30.27F
$$
MIZ001>003-009>011-084-141400-
WESTERN UPPER MICHIGAN

CITY           SKY/WX    TMP DP  RH WIND       PRES   REMARKS
IRON MOUNTAIN  CLOUDY   -19 -26  70 CALM      30.27F
HOUGHTON       CLOUDY    -3  -9  75 S5        30.23F WCI -13
COPPER HARBOR    N/A      0  -4  83 SW5       30.28F WCI -10
IRONWOOD       CLEAR      0 -15  50 CALM      30.15F
$$

ABBREVIATIONS USED IN REMARKS
   TC - TEMPERATURE IN CELSIUS
  WCI - WIND CHILL INDEX
   HX - HEAT INDEX
  VSB - VISIBILITY




USA.gov is the U.S. government's official web portal to all federal, state and local government web resources and services.